Retour au catalogue

STARLINK-6277

ActifCommunicationsVLEO
NORAD 56399·PAYLOAD·🇺🇸 United States

Lancé May 4, 2023 depuis Cape Canaveral Space Force Station

Loading…

Prochains Passages (prochaines 24 heures)

TLE

FraisSource: CelesTrak SupGP

Époque: Sep 14, 2026, 21:33 UTC

1 56399C 23061AB  26257.89840278 -.00005213  00000+0 -18875-3 0  2573
2 56399  43.0028 198.2685 0001454 259.6205 124.1536 15.27589557    10

Suivez STARLINK-6277 en temps réel avec AllMySat

Download on the App Store